TimeEDT,TemperatureF,Dew PointF,Humidity,Sea Level PressureIn,VisibilityMPH,Wind Direction,Wind SpeedMPH,Gust SpeedMPH,PrecipitationIn,Events,Conditions,WindDirDegrees,DateUTC
12:53 AM,44.1,33.1,65,30.22,10.0,North,5.8,-,N/A,,Clear,350,2012-10-27 04:53:00
1:53 AM,43.0,33.1,68,30.22,10.0,North,8.1,-,N/A,,Mostly Cloudy,350,2012-10-27 05:53:00
2:53 AM,44.1,33.1,65,30.19,10.0,North,8.1,-,N/A,,Overcast,10,2012-10-27 06:53:00
3:53 AM,43.0,33.1,68,30.19,10.0,NNE,11.5,-,N/A,,Overcast,20,2012-10-27 07:53:00
4:53 AM,41.0,33.1,73,30.19,10.0,North,12.7,-,N/A,,Mostly Cloudy,360,2012-10-27 08:53:00
5:53 AM,39.0,32.0,76,30.19,10.0,North,9.2,-,N/A,,Clear,350,2012-10-27 09:53:00
6:53 AM,39.0,32.0,76,30.19,10.0,North,13.8,-,N/A,,Clear,350,2012-10-27 10:53:00
7:53 AM,39.0,30.9,73,30.21,10.0,North,11.5,-,N/A,,Clear,360,2012-10-27 11:53:00
8:53 AM,39.0,30.9,73,30.22,10.0,North,10.4,-,N/A,,Clear,350,2012-10-27 12:53:00
9:53 AM,44.1,32.0,63,30.21,10.0,North,11.5,18.4,N/A,,Clear,360,2012-10-27 13:53:00
10:53 AM,48.0,33.1,56,30.21,10.0,North,15.0,21.9,N/A,,Clear,10,2012-10-27 14:53:00
11:53 AM,51.1,36.0,56,30.20,10.0,North,12.7,-,N/A,,Partly Cloudy,360,2012-10-27 15:53:00
12:53 PM,53.1,35.1,50,30.19,10.0,North,13.8,-,N/A,,Mostly Cloudy,350,2012-10-27 16:53:00
1:53 PM,53.1,32.0,45,30.17,10.0,North,13.8,21.9,N/A,,Scattered Clouds,360,2012-10-27 17:53:00
2:53 PM,53.1,30.9,43,30.15,10.0,North,12.7,23.0,N/A,,Clear,350,2012-10-27 18:53:00
3:53 PM,54.0,30.9,41,30.14,10.0,North,9.2,21.9,N/A,,Clear,360,2012-10-27 19:53:00
4:53 PM,52.0,30.0,43,30.14,10.0,North,10.4,24.2,N/A,,Partly Cloudy,10,2012-10-27 20:53:00
5:53 PM,51.1,30.0,44,30.15,10.0,NNE,12.7,18.4,N/A,,Clear,20,2012-10-27 21:53:00
6:53 PM,48.0,28.9,48,30.18,10.0,NNE,10.4,19.6,N/A,,Clear,20,2012-10-27 22:53:00
7:53 PM,46.0,30.0,54,30.20,10.0,NNE,9.2,-,N/A,,Scattered Clouds,20,2012-10-27 23:53:00
8:53 PM,43.0,30.0,60,30.22,10.0,NE,9.2,-,N/A,,Clear,40,2012-10-28 00:53:00
9:53 PM,39.0,30.0,70,30.22,10.0,NE,6.9,-,N/A,,Clear,40,2012-10-28 01:53:00
10:53 PM,39.9,30.0,68,30.22,10.0,NNE,5.8,-,N/A,,Clear,30,2012-10-28 02:53:00